CW3783 Weather Reports


Display with metric or nautical units.
time (UTC)temp
F
wind
direction
speed
MPH
gust
MPH
rain 1hr
in
rain 24hr
in
rain mn
in
humidity
%
barometer
mb
20260508140804 63 245 4.0 12.0 0.00 0.00 0.00 40 1013.6
20260508140303 63 273 3.0 9.0 0.00 0.00 0.00 39 1013.6
20260508135306 62 258 4.0 12.0 0.00 0.00 0.00 38 1013.5
20260508134303 62 239 5.0 13.0 0.00 0.00 0.00 38 1013.6
20260508133804 62 269 3.0 13.0 0.00 0.00 0.00 39 1013.7
20260508133304 62 252 4.0 12.0 0.00 0.00 0.00 39 1013.8
20260508132803 61 256 6.0 10.0 0.00 0.00 0.00 39 1013.8
20260508132306 61 230 2.0 7.0 0.00 0.00 0.00 40 1013.9
20260508131803 61 220 2.0 7.0 0.00 0.00 0.00 39 1013.9
20260508131304 61 276 2.0 5.0 0.00 0.00 0.00 39 1013.9
20260508130303 61 194 3.0 3.0 0.00 0.00 0.00 41 1013.8
20260508125803 60 287 2.0 6.0 0.00 0.00 0.00 44 1013.9
20260508125306 60 214 2.0 3.0 0.00 0.00 0.00 46 1013.9
20260508124304 60 265 3.0 8.0 0.00 0.00 0.00 48 1013.9
20260508123804 59 311 3.0 6.0 0.00 0.00 0.00 48 1013.8
20260508123303 59 299 2.0 5.0 0.00 0.00 0.00 47 1013.8
20260508122804 58 258 2.0 6.0 0.00 0.00 0.00 51 1013.8
20260508122306 58 327 1.0 3.0 0.00 0.00 0.00 53 1013.8
20260508121803 57 317 2.0 7.0 0.00 0.00 0.00 54 1013.7
20260508121303 57 292 3.0 6.0 0.00 0.00 0.00 55 1013.8
20260508120803 56 274 2.0 6.0 0.00 0.00 0.00 55 1013.7
20260508120303 55 299 2.0 5.0 0.00 0.00 0.00 58 1013.7
20260508115803 55 295 1.0 7.0 0.00 0.00 0.00 59 1013.8
20260508114803 53 301 6.0 10.0 0.00 0.00 0.00 61 1013.7
20260508113803 52 302 4.0 8.0 0.00 0.00 0.00 62 1013.6
20260508113303 52 306 3.0 7.0 0.00 0.00 0.00 64 1013.5
20260508112803 51 323 1.0 7.0 0.00 0.00 0.00 65 1013.4
20260508111803 50 302 3.0 9.0 0.00 0.00 0.00 66 1013.3
20260508111303 49 326 3.0 6.0 0.00 0.00 0.00 67 1013.2
20260508110803 49 321 2.0 3.0 0.00 0.00 0.00 68 1013.1
20260508105804 48 309 4.0 8.0 0.00 0.00 0.00 68 1013.0
20260508105306 47 308 3.0 5.0 0.00 0.00 0.00 67 1013.0
20260508104803 47 302 3.0 6.0 0.00 0.00 0.00 67 1012.8
20260508103803 47 310 5.0 8.0 0.00 0.00 0.00 67 1012.9
20260508103303 47 321 3.0 8.0 0.00 0.00 0.00 67 1012.8
20260508102803 47 314 5.0 9.0 0.00 0.00 0.00 67 1012.9
20260508102306 47 310 6.0 9.0 0.00 0.00 0.00 67 1012.8
20260508101803 47 319 4.0 10.0 0.00 0.00 0.00 66 1012.8
20260508101303 47 317 4.0 8.0 0.00 0.00 0.00 66 1012.7
20260508100803 47 296 3.0 6.0 0.00 0.00 0.00 66 1012.7
20260508100303 47 324 3.0 7.0 0.00 0.00 0.00 66 1012.6
20260508095306 47 321 3.0 7.0 0.00 0.00 0.00 65 1012.5
20260508094803 47 329 5.0 9.0 0.00 0.00 0.00 65 1012.4
20260508094303 47 327 3.0 6.0 0.00 0.00 0.00 65 1012.3
20260508093303 48 334 3.0 6.0 0.00 0.00 0.00 64 1012.4
20260508092803 48 325 2.0 3.0 0.00 0.00 0.00 64 1012.4
20260508092312 48 310 2.0 3.0 0.00 0.00 0.00 64 1012.4
20260508091803 48 322 2.0 3.0 0.00 0.00 0.00 63 1012.4
20260508091303 48 326 2.0 3.0 0.00 0.00 0.00 63 1012.3
20260508090803 49 342 2.0 5.0 0.00 0.00 0.00 63 1012.2
20260508090304 49 349 3.0 6.0 0.00 0.00 0.00 63 1012.2
20260508085803 49 351 3.0 12.0 0.00 0.00 0.00 63 1012.1
20260508085306 49 323 4.0 9.0 0.00 0.00 0.00 63 1012.1
20260508084803 49 339 6.0 10.0 0.00 0.00 0.00 63 1012.0
20260508083803 49 343 5.0 9.0 0.00 0.00 0.00 63 1012.0
20260508083303 49 336 5.0 10.0 0.00 0.00 0.00 63 1011.9
20260508082803 49 338 5.0 9.0 0.00 0.00 0.00 63 1011.9
20260508082306 49 331 6.0 12.0 0.00 0.00 0.00 63 1011.9
20260508081303 50 351 5.0 9.0 0.00 0.00 0.00 63 1011.7
20260508080803 50 338 5.0 10.0 0.00 0.00 0.00 64 1011.7
20260508080303 50 329 5.0 8.0 0.00 0.00 0.00 64 1011.6
20260508075308 50 333 8.0 9.0 0.00 0.00 0.00 65 1011.4
20260508074803 50 338 6.0 12.0 0.00 0.00 0.00 65 1011.4
20260508073803 50 325 6.0 10.0 0.00 0.00 0.00 67 1011.3
20260508073303 50 327 7.0 12.0 0.00 0.00 0.00 68 1011.3
20260508072804 50 318 5.0 10.0 0.00 0.00 0.00 69 1011.1
20260508071804 50 329 4.0 6.0 0.00 0.00 0.00 70 1010.9
20260508070804 50 326 5.0 9.0 0.00 0.00 0.00 72 1010.8
20260508065803 50 328 6.0 13.0 0.00 0.00 0.00 74 1010.7
20260508065306 49 326 5.0 10.0 0.00 0.00 0.00 76 1010.6
20260508064803 49 324 6.0 13.0 0.00 0.00 0.00 76 1010.5
20260508064303 49 302 3.0 7.0 0.00 0.00 0.00 78 1010.5
20260508063803 50 341 3.0 12.0 0.00 0.00 0.00 80 1010.4
20260508062803 50 315 3.0 8.0 0.00 0.00 0.00 81 1010.4
20260508062306 50 300 5.0 8.0 0.00 0.00 0.00 82 1010.3
20260508061804 50 302 4.0 7.0 0.00 0.00 0.00 82 1010.2
20260508061303 50 291 6.0 10.0 0.00 0.00 0.00 82 1010.2
20260508060803 50 305 4.0 10.0 0.00 0.00 0.00 82 1010.2
20260508060303 50 309 5.0 9.0 0.00 0.00 0.00 82 1010.2
20260508055803 50 306 5.0 10.0 0.00 0.00 0.00 82 1010.2
20260508055306 50 292 6.0 12.0 0.00 0.00 0.00 82 1010.2
20260508054803 50 305 6.0 12.0 0.00 0.00 0.00 82 1010.2
20260508054304 50 307 6.0 10.0 0.00 0.00 0.00 82 1010.1
20260508053303 51 273 7.0 8.0 0.00 0.00 0.00 82 1010.0
20260508052803 51 306 4.0 8.0 0.00 0.01 0.00 81 1010.0
20260508052306 51 284 3.0 9.0 0.00 0.01 0.00 81 1009.9
20260508051803 51 283 4.0 6.0 0.00 0.01 0.00 81 1010.0
20260508051303 51 243 2.0 5.0 0.00 0.01 0.00 81 1009.9
20260508050803 51 297 2.0 5.0 0.00 0.02 0.00 81 1009.8
20260508050303 51 275 2.0 7.0 0.00 0.06 0.00 81 1009.8
20260508045306 51 274 3.0 6.0 0.00 0.07 0.00 80 1009.6
20260508044803 52 300 4.0 10.0 0.00 0.12 0.00 80 1009.6
20260508044303 52 259 3.0 3.0 0.00 0.13 0.00 80 1009.6
20260508043803 52 284 2.0 7.0 0.00 0.13 0.00 80 1009.5
20260508043303 52 261 4.0 7.0 0.00 0.13 0.00 80 1009.5
20260508042306 52 277 3.0 8.0 0.00 0.13 0.00 79 1009.5
20260508041304 52 261 5.0 12.0 0.00 0.13 0.00 79 1009.4
20260508040803 52 224 5.0 10.0 0.00 0.13 0.00 78 1009.3
20260508040303 52 254 4.0 8.0 0.00 0.13 0.00 78 1009.3
20260508035803 52 246 3.0 7.0 0.00 0.13 0.13 78 1009.3
20260508035306 53 252 5.0 9.0 0.00 0.13 0.13 78 1009.2
20260508034304 53 261 5.0 12.0 0.00 0.13 0.13 78 1009.3
20260508033805 53 241 4.0 8.0 0.00 0.13 0.13 77 1009.2
20260508033303 53 254 4.0 8.0 0.00 0.13 0.13 77 1009.2
20260508032803 53 288 4.0 10.0 0.00 0.13 0.13 77 1009.2
20260508032306 53 264 4.0 10.0 0.00 0.13 0.13 76 1009.2
20260508031803 53 249 6.0 12.0 0.00 0.13 0.13 76 1009.2
20260508031304 53 260 4.0 9.0 0.00 0.13 0.13 76 1009.2
20260508030804 53 260 3.0 7.0 0.00 0.13 0.13 76 1009.2
20260508030304 53 229 4.0 7.0 0.00 0.13 0.13 75 1009.2
20260508025305 54 280 4.0 9.0 0.00 0.13 0.13 75 1009.2
20260508024804 54 236 4.0 9.0 0.00 0.13 0.13 74 1009.1
20260508024304 54 256 3.0 6.0 0.00 0.13 0.13 74 1009.1
20260508023303 54 249 3.0 3.0 0.00 0.13 0.13 73 1009.0
20260508022804 54 213 3.0 12.0 0.00 0.13 0.13 73 1009.1
20260508022306 55 240 4.0 10.0 0.00 0.13 0.13 72 1009.1
20260508021804 55 240 4.0 12.0 0.00 0.13 0.13 72 1009.1
20260508021303 55 235 5.0 12.0 0.00 0.13 0.13 71 1009.0
20260508020804 55 234 2.0 8.0 0.00 0.13 0.13 71 1008.9
20260508015803 55 231 3.0 8.0 0.00 0.13 0.13 70 1008.9
20260508015306 55 225 3.0 7.0 0.00 0.13 0.13 69 1009.0
20260508014803 55 247 3.0 6.0 0.00 0.13 0.13 69 1008.9
20260508013304 56 220 3.0 6.0 0.00 0.13 0.13 68 1008.8
20260508012803 56 193 5.0 8.0 0.00 0.13 0.13 68 1008.8
20260508012307 56 233 6.0 12.0 0.00 0.13 0.13 67 1008.7
20260508011804 56 230 3.0 8.0 0.00 0.13 0.13 66 1008.7
20260508011304 56 225 3.0 10.0 0.00 0.13 0.13 66 1008.5
20260508010803 56 222 5.0 10.0 0.00 0.13 0.13 65 1008.4
20260508010304 56 214 5.0 8.0 0.00 0.13 0.13 64 1008.3
20260508005803 57 208 4.0 8.0 0.00 0.13 0.13 64 1008.3
20260508005305 57 186 3.0 9.0 0.00 0.13 0.13 63 1008.2
20260508004803 57 207 3.0 7.0 0.00 0.13 0.13 63 1008.0
20260508003803 57 214 3.0 10.0 0.00 0.13 0.13 62 1008.0
20260508003303 57 214 5.0 12.0 0.00 0.13 0.13 62 1007.9
20260508002804 58 225 6.0 12.0 0.00 0.13 0.13 61 1007.9
20260508001803 58 207 5.0 10.0 0.00 0.13 0.13 60 1007.8
20260508001304 58 206 3.0 9.0 0.00 0.13 0.13 60 1007.7
20260508000803 58 195 5.0 9.0 0.00 0.13 0.13 60 1007.7
20260508000305 59 197 4.0 12.0 0.00 0.13 0.13 59 1007.6
20260507235803 59 197 3.0 12.0 0.00 0.13 0.13 58 1007.6
20260507235306 59 224 7.0 12.0 0.00 0.13 0.13 58 1007.4
20260507234803 59 210 9.0 15.0 0.00 0.13 0.13 57 1007.3
20260507234304 59 198 8.0 14.0 0.00 0.13 0.13 57 1007.3
20260507233803 60 198 3.0 9.0 0.00 0.13 0.13 57 1007.3
20260507233303 60 207 6.0 12.0 0.00 0.13 0.13 57 1007.3
20260507232803 60 200 6.0 12.0 0.00 0.13 0.13 57 1007.2
20260507232306 60 201 5.0 10.0 0.00 0.13 0.13 57 1007.1
20260507231804 60 188 6.0 12.0 0.00 0.13 0.13 56 1007.1
20260507231304 60 209 8.0 14.0 0.00 0.13 0.13 56 1007.0
20260507230803 61 172 7.0 12.0 0.00 0.13 0.13 55 1007.0
20260507230303 61 208 4.0 13.0 0.00 0.13 0.13 55 1006.8
20260507225804 61 191 7.0 13.0 0.00 0.13 0.13 55 1006.9
20260507225306 61 173 6.0 13.0 0.00 0.13 0.13 55 1006.8
20260507224803 62 156 7.0 14.0 0.00 0.13 0.13 54 1006.8
20260507224303 62 182 9.0 13.0 0.00 0.13 0.13 53 1006.8
20260507223804 62 167 6.0 10.0 0.00 0.13 0.13 52 1006.8
20260507223304 63 193 5.0 14.0 0.00 0.13 0.13 52 1006.7
20260507222803 63 193 7.0 12.0 0.00 0.13 0.13 51 1006.7
20260507222306 64 211 5.0 10.0 0.00 0.13 0.13 51 1006.7
20260507221804 64 157 5.0 12.0 0.00 0.13 0.13 50 1006.6
20260507221304 64 160 4.0 12.0 0.00 0.13 0.13 49 1006.5
20260507220803 64 182 7.0 12.0 0.00 0.13 0.13 49 1006.5
20260507220303 65 152 8.0 15.0 0.00 0.13 0.13 47 1006.5
20260507215803 65 146 8.0 12.0 0.00 0.13 0.13 48 1006.6
20260507215306 66 174 6.0 12.0 0.00 0.13 0.13 47 1006.6
20260507214803 66 160 6.0 13.0 0.00 0.13 0.13 46 1006.6
20260507213804 67 140 8.0 12.0 0.00 0.13 0.13 44 1006.6
20260507213304 68 166 8.0 13.0 0.00 0.13 0.13 41 1006.7
20260507212803 68 238 1.0 8.0 0.00 0.13 0.13 37 1006.6
20260507212306 68 8 4.0 9.0 0.00 0.13 0.13 36 1006.6
20260507211303 68 53 6.0 12.0 0.00 0.13 0.13 38 1006.6
20260507210803 68 330 2.0 9.0 0.00 0.13 0.13 35 1006.7
20260507210303 68 57 5.0 12.0 0.00 0.13 0.13 35 1006.7
20260507205803 69 23 7.0 10.0 0.00 0.13 0.13 35 1006.7
20260507204303 69 313 8.0 14.0 0.00 0.13 0.13 35 1006.8
20260507203303 69 13 7.0 13.0 0.00 0.13 0.13 36 1006.7
20260507202803 69 306 2.0 12.0 0.00 0.13 0.13 37 1006.6
20260507202306 68 307 7.0 12.0 0.00 0.13 0.13 37 1006.5
20260507201803 68 311 7.0 13.0 0.00 0.13 0.13 37 1006.6
20260507201303 68 333 6.0 10.0 0.00 0.13 0.13 37 1006.5
20260507200803 67 335 5.0 12.0 0.00 0.13 0.13 38 1006.6
20260507195803 67 95 3.0 7.0 0.00 0.13 0.13 42 1006.7
20260507195305 67 24 11.0 17.0 0.00 0.13 0.13 43 1006.7
20260507194803 67 132 3.0 8.0 0.00 0.13 0.13 43 1006.7
20260507194304 67 161 6.0 10.0 0.00 0.13 0.13 41 1006.8
20260507193804 66 181 6.0 9.0 0.00 0.13 0.13 42 1006.9
20260507193303 66 154 7.0 12.0 0.00 0.13 0.13 42 1007.1
20260507192804 66 205 5.0 12.0 0.00 0.13 0.13 43 1007.2
20260507192306 67 149 6.0 12.0 0.00 0.13 0.13 44 1007.2
20260507191803 66 155 5.0 10.0 0.00 0.13 0.13 43 1007.2
20260507191303 66 195 3.0 8.0 0.00 0.13 0.13 43 1007.2
20260507190803 66 151 5.0 9.0 0.00 0.13 0.13 44 1007.3
20260507190303 66 179 4.0 10.0 0.00 0.13 0.13 46 1007.3
20260507185803 66 154 7.0 10.0 0.00 0.13 0.13 44 1007.5
20260507185305 65 172 7.0 10.0 0.00 0.13 0.13 44 1007.4
20260507184803 65 221 1.0 8.0 0.00 0.13 0.13 42 1007.4
20260507184303 65 241 2.0 3.0 0.00 0.13 0.13 44 1007.6
20260507183803 65 184 5.0 9.0 0.00 0.13 0.13 42 1007.7
20260507183303 65 180 3.0 12.0 0.00 0.13 0.13 43 1007.6
20260507182804 65 203 3.0 8.0 0.00 0.13 0.13 43 1007.8
20260507182306 66 193 5.0 9.0 0.00 0.13 0.13 43 1007.8
20260507181804 65 166 3.0 9.0 0.00 0.13 0.13 46 1007.8
20260507180803 65 208 5.0 12.0 0.00 0.13 0.13 43 1007.9
20260507180303 65 164 3.0 6.0 0.00 0.13 0.13 43 1008.3
20260507175306 65 329 1.0 3.0 0.00 0.13 0.13 45 1008.3
20260507174303 64 132 3.0 12.0 0.00 0.13 0.13 46 1008.5
20260507173803 64 176 4.0 10.0 0.00 0.13 0.13 44 1008.7
20260507172804 63 135 4.0 8.0 0.00 0.13 0.13 48 1008.7
20260507172307 62 152 4.0 10.0 0.00 0.13 0.13 49 1008.6
20260507171304 62 204 3.0 7.0 0.00 0.13 0.13 44 1008.7
20260507170803 62 205 2.0 9.0 0.00 0.13 0.13 46 1008.8
20260507170304 62 183 4.0 9.0 0.00 0.13 0.13 48 1008.9
20260507165803 61 174 5.0 10.0 0.00 0.13 0.13 46 1009.1
20260507165306 61 239 3.0 8.0 0.00 0.13 0.13 47 1009.2
20260507164303 60 171 2.0 5.0 0.00 0.13 0.13 45 1009.5
20260507163803 60 150 1.0 3.0 0.00 0.13 0.13 47 1009.6
20260507163303 60 335 1.0 3.0 0.00 0.13 0.13 48 1009.6
20260507162804 60 18 2.0 3.0 0.00 0.13 0.13 51 1009.6
20260507162306 59 11 1.0 3.0 0.00 0.13 0.13 50 1009.7
20260507161303 59 321 1.0 3.0 0.00 0.13 0.13 50 1009.9
20260507160303 58 49 0.0 3.0 0.00 0.13 0.13 48 1010.1
20260507155306 57 17 4.0 7.0 0.00 0.13 0.13 50 1010.1
20260507154803 57 14 3.0 9.0 0.00 0.13 0.13 49 1010.2
20260507154303 57 9 5.0 9.0 0.00 0.13 0.13 51 1010.2
20260507153803 57 6 6.0 9.0 0.00 0.13 0.13 50 1010.3
20260507153303 56 354 6.0 9.0 0.00 0.13 0.13 51 1010.2
20260507152804 56 5 6.0 9.0 0.00 0.13 0.13 52 1010.3
20260507151803 56 25 3.0 7.0 0.00 0.13 0.13 51 1010.5
20260507151303 56 14 3.0 5.0 0.00 0.13 0.13 52 1010.5
20260507150303 55 20 2.0 5.0 0.00 0.13 0.13 54 1010.6
20260507145803 55 39 2.0 5.0 0.00 0.13 0.13 53 1010.6
20260507145306 55 30 2.0 3.0 0.00 0.13 0.13 56 1010.7
20260507144803 55 25 2.0 6.0 0.00 0.14 0.13 55 1010.8
20260507144304 55 24 3.0 7.0 0.00 0.14 0.13 55 1010.9
20260507143303 55 17 4.0 7.0 0.00 0.15 0.13 54 1010.9
20260507142803 55 16 5.0 9.0 0.00 0.16 0.13 56 1010.9
20260507142306 55 12 5.0 7.0 0.00 0.16 0.13 55 1010.9